This demonstration page uses our WeatherBlox Daily Observations layout. Learn more.

Left ArrowRight Arrow

36.19886, -115.1175

Hourly Observations for February 15, 2022

Temp ( °F °C ) Dew Point ( °F °C ) Humidity (%) Winds ( mph kmh ) Pressure ( in mb ) Visibility ( mi km ) Precip ( " mm )
12:53 am 00:53 Clear 65 18.3 19 -7.2 17 17 S 16 26 29.70 1006 10 16 0.00 0.00
1:53 am 01:53 Clear 64 17.8 21 -6.1 19 19 SSW 16 26 29.67 1005 10 16 0.00 0.00
2:53 am 02:53 Clear 64 17.8 21 -6.1 19 19 SSW 16 26 29.65 1004 10 16 0.00 0.00
3:53 am 03:53 Clear 62 16.7 20 -6.7 20 20 SSE 15 24 29.63 1003 10 16 0.00 0.00
4:53 am 04:53 Clear 63 17.2 20 -6.7 19 19 S 20 31 29.60 1003 10 16 0.00 0.00
5:53 am 05:53 Clear 62 16.7 20 -6.7 20 20 SSE 22 35 29.60 1002 10 16 0.00 0.00
6:53 am 06:53 Sunny 60 15.6 26 -3.3 27 27 SE 15 24 29.65 1004 10 16 0.00 0.00
7:53 am 07:53 Sunny 62 16.7 27 -2.8 26 26 SSW 14 22 29.66 1004 10 16 0.00 0.00
8:53 am 08:53 Sunny 62 16.7 26 -3.3 25 25 SSW 24 39 29.64 1004 10 16 0.00 0.00
9:53 am 09:53 Sunny 65 18.3 28 -2.2 25 25 SSW 24 39 29.63 1003 10 16 0.00 0.00
10:53 am 10:53 Sunny 66 18.9 28 -2.2 24 24 S 18 30 29.63 1003 10 16 0.00 0.00
11:53 am 11:53 Sunny 66 18.9 28 -2.2 24 24 undefined N/A 29.62 1003 10 16 0.00 0.00
12:53 pm 12:53 Sunny 65 18.3 29 -1.7 26 26 undefined N/A 29.61 1003 10 16 0.00 0.00
1:53 pm 13:53 Mostly Cloudy 65 18.3 29 -1.7 26 26 SW 13 20 29.62 1003 10 16 0.00 0.00
2:53 pm 14:53 Mostly Sunny 64 17.8 24 -4.4 22 22 SW 17 28 29.62 1003 10 16 0.00 0.00
3:53 pm 15:53 Sunny 62 16.7 15 -9.4 16 16 WSW 16 26 29.65 1004 10 16 0.00 0.00
4:53 pm 16:53 Sunny 62 16.7 15 -9.4 16 16 W 13 20 29.64 1004 10 16 0.00 0.00
5:53 pm 17:53 Clear 60 15.6 16 -8.9 18 18 VRB 3 6 29.64 1004 10 16 0.00 0.00
6:53 pm 18:53 Mostly Cloudy 59 15 12 -11.1 15 15 NW 10 17 29.67 1005 10 16 0.00 0.00
7:53 pm 19:53 Mostly Cloudy 57 13.9 21 -6.1 25 25 NW 21 33 29.67 1005 10 16 0.00 0.00
8:53 pm 20:53 Cloudy with Light Rain 57 13.9 20 -6.7 24 24 NW 17 28 29.72 1006 10 16 0.00 0.00
9:53 pm 21:53 Cloudy 57 13.9 21 -6.1 25 25 NNW 9 15 29.77 1008 10 16 0.00 0.00
10:53 pm 22:53 Cloudy 57 13.9 26 -3.3 30 30 NW 23 37 29.72 1006 10 16 0.00 0.00
11:53 pm 23:53 Mostly Clear 55 12.8 25 -3.9 31 31 N 8 13 29.74 1007 10 16 0.00 0.00

Powered by AerisWeather